STARLINK-31942, 59899

Orbit data source: Space-Track

STARLINK-31942, 59899 is a payload satellite owned by SpaceX/Seattle (US) in LEO that was launched on Tue, 28 May 2024 UTC via an FALCON 9 launch vehicle from the Air Force Eastern Test Range (AFETR). Payload-class satellites include a variety of spacecraft equipped with specific instruments for various scientific and technological missions. These include communications satellites like Starlink; space stations such as the ISS; scientific satellites like the Hubble; Earth observation satellites from companies like Planet Labs, Umbra, and HawkEye 360; GPS; miniature CubeSats for education and research; and military/defense satellites.

Loading next visibility...
Identifier
59899, 2024-100Q
Orbit
LEO
Country
Flag of USUS
Related business
Manufacturer
SpaceX/Seattle
Mission
Operational Commercial Communications
Bus & Motor
STARLINK V2M, Unknown motor
Mass
730 kg wet, ~700 kg dry
Launch date (UTC)
2024-05-28 (2 years ago)
Launch vehicle
FALCON 9
Launch site
Air Force Eastern Test Range (AFETR)
Object type
Payload
Rocket body
Debris
Shape & HBR
Box + 2 Pan, 17.7 m
Radar Cross Section
33.884 m², Large (>1 m²)

Expand to show TLE details & history
Last TLE update: 11 hours ago

TLE from 11 hours ago
0 STARLINK-31942
1 59899U 24100Q   26036.15973869 -.00001668  00000-0 -51098-4 0  9992
2 59899  42.9979 308.9612 0000559 320.0581  40.0229 15.27585285 96177
Epoch: 2026-02-05T03:50Z
TLE epoch observation values (Epoch: 2026-02-05T03:50:01.422Z)
Latitude
-0.00006°
Longitude
116.13925°
Altitude
482.515 km
Speed
7.626 km/s
True Right ascension
20h 35m 50s
True Declination
0° 00' 00"
Sunlit
Object was in daylight at epoch
Visualization orbit readout
Latitude
Unknown
Longitude
Unknown
Altitude
Unknown
Speed
Unknown
Apparent Right ascension
Unknown
Apparent Declination
Unknown
Sunlit
N/A
Visualization observer readout
Local Sidereal Time
17:15:30
Azimuth
Unknown
Elevation
Unknown
Doppler factor
Unknown
Orbital elements
Apogee altitude
485.362 km
Perigee altitude
484.595 km
Semi-major axis
6,863.116 km
Eccentricity
0.00006
Inclination
42.9979°
RAAN
308.9612°
Arg. of periapsis
320.0581°
True anomaly
40.02702°
Mean anomaly
40.0229°
Eccentric anomaly
40.02496°
Mean motion
3.81734 °/min
Orbital period
94.31 mins
BSTAR
-0.000051098
Loading maneuver chart data...
Computing Atmospheric mass density...
Loading historical data...
Loading historical data...
Loading historical data...
Loading historical data...
Loading historical data...
Loading historical data...
Loading historical data...

Documentation

Showing up to 5 results
|